• Processing (Info)

  • MPEC 2022-X17 : 2022 WV10

    The following Minor Planet Electronic Circular may be linked-to from your own Web pages, but must not otherwise be redistributed electronically.

    A form allowing access to any MPEC is at the bottom of this page.


    Read MPEC 2022-X16 Read MPEC 2022-X18


    M.P.E.C. 2022-X17                              Issued 2022 December 1, 13:19 UT
    
         The Minor Planet Electronic Circulars contain information on unusual
             minor planets, routine data on comets and natural satellites,
             and occasional editorial announcements.  They are published
        on behalf of Division F of the International Astronomical Union by the
              Minor Planet Center, Smithsonian Astrophysical Observatory,
                              Cambridge, MA 02138, U.S.A.
    			  
                 Prepared using the Tamkin Foundation Computer Network
    
                                  MPC@CFA.HARVARD.EDU
                URL https://www.minorplanetcenter.net/    ISSN 1523-6714
    
                                    2022 WV10                                
    
    
    Observations:
         K22W10V*1C2022 11 29.47104009 25 17.648+19 17 42.36         21.35GVEX017G96
         K22W10V 1C2022 11 29.47626209 25 12.623+19 18 06.98         21.03GVEX017G96
         K22W10V 1C2022 11 29.48148309 25 07.669+19 18 30.24         21.26GVEX017G96
         K22W10V 1C2022 11 29.48672009 25 02.734+19 18 54.25         21.63GVEX017G96
         K22W10V KC2022 11 29.51475309 24 35.932+19 21 00.72         20.96GVEX017I52
         K22W10V KC2022 11 29.51995509 24 30.985+19 21 23.51         21.24GVEX017I52
         K22W10V KC2022 11 29.52254209 24 28.537+19 21 35.03         21.18GVEX017I52
         K22W10V KC2022 11 30.44108309 11 07.498+20 25 24.24         21.26GVEX017I52
         K22W10V KC2022 11 30.44440009 11 04.589+20 25 37.56         21.08GVEX017I52
         K22W10V KC2022 11 30.44771609 11 01.666+20 25 49.91         21.51GVEX017I52
         K22W10V KC2022 12 01.35025608 58 46.70 +21 19 51.0          21.0 VuEX017H21
         K22W10V KC2022 12 01.35585008 58 42.08 +21 20 10.6          21.0 VuEX017H21
         K22W10V KC2022 12 01.36144408 58 37.48 +21 20 29.7          21.5 VuEX017H21
         K22W10V KC2022 12 01.50085808 56 45.661+21 28 25.18         21.03GVEX017I52
         K22W10V KC2022 12 01.50424608 56 42.907+21 28 36.52         20.79GVEX017I52
         K22W10V KC2022 12 01.50544208 56 42.234+21 28 38.71               VEX017I52
         K22W10V KC2022 12 01.50662208 56 40.906+21 28 44.33         21.28GVEX017I52
    
    Observer details:
    G96 Mt. Lemmon Survey.  Observer G. J. Leonard.  Measurers E. J. Christensen,
        D. Fay, J. B. Fazekas, D. C. Fuls, A. R. Gibbs, A. D. Grauer, H. Groeller,
        J. K. Hogan, R. A. Kowalski, S. M. Larson, G. J. Leonard, D. Rankin, R. L.
        Seaman, A. Serrano, F. C. Shelly, K. W. Wierzchos.  1.5-m reflector + 10K
        CCD.
    H21 Astronomical Research Observatory, Westfield.  Observer R. Holmes.
        Measurers T. Linder, R. Holmes, L. Horn.  0.76-m f/3.0 astrograph + CCD.
    I52 Steward Observatory, Mt. Lemmon Station.  Observers D. C. Fuls, A.
        Serrano.  Measurers E. J. Christensen, D. Fay, J. B. Fazekas, D. C. Fuls,
        A. R. Gibbs, A. D. Grauer, H. Groeller, J. K. Hogan, R. A. Kowalski, S. M.
        Larson, G. J. Leonard, D. Rankin, R. L. Seaman, A. Serrano, F. C. Shelly,
        K. W. Wierzchos.  1.0-m prime focus + CCD.
    
    Orbital elements:
    2022 WV10                                                Earth MOID = 0.0037 AU
    Epoch 2023 Feb. 25.0 TT = JDT 2460000.5                 Veres                   
    M  68.45093              (2000.0)            P               Q                  
    n   0.50677354     Peri.  310.94820     +0.99643930     -0.08322006             
    a   1.5580932      Node    53.82975     +0.08151524     +0.90987363             
    e   0.4739697      Incl.    0.96056     +0.02154040     +0.40645345             
    P   1.94           H   24.76          G   0.15           U   9                  
    Residuals in seconds of arc
    221129 G96  0.1+  0.5-    221129 I52  0.0   0.1-    221201 H21  0.2-  0.2+
    221129 G96  0.5-  0.3+    221130 I52  0.4-  0.0     221201 I52  0.3+  0.5-
    221129 G96  0.1-  0.1-    221130 I52  0.1+  0.3+    221201 I52  0.6+  0.2-
    221129 G96  0.7+  0.1+    221130 I52  0.3+  0.5-    221201 I52 (4.9+  1.9-)
    221129 I52  0.3-  0.3+    221201 H21  0.2+  0.1-    221201 I52  0.2-  0.1-
    221129 I52  0.2-  0.1-    221201 H21  0.2-  0.3+
    
    Ephemeris:
    2022 WV10                a,e,i = 1.56, 0.47, 1                   q = 0.8196
    Date    TT    R. A. (2000) Decl.     Delta      r    Elong.  Phase     V
    2022 11 01    15 47 23.6 -21 48 23   0.1484  0.8562    21.3   155.1    29.8
    ...
    2022 11 16    13 38 54.6 -09 54 27   0.06914 0.9279    26.8   151.3    27.5
    ...
    2022 11 24    11 04 07.5 +09 15 29   0.05973 0.9766    77.8    98.8    22.2
    ...
    2022 11 30    09 17 24.8 +19 56 17   0.07462 1.0164   111.7    64.4    21.4
    2022 12 01    09 03 23.8 +21 00 19   0.07836 1.0232   116.2    59.9    21.4
    2022 12 02    08 50 26.8 +21 54 51   0.08235 1.0301   120.3    55.7    21.4
    ...
    2022 12 08    07 51 13.5 +25 05 53   0.1103  1.0723   140.3    35.9    21.6
    ...
    2022 12 16    07 03 56.5 +26 26 45   0.1550  1.1304   159.0    18.2    21.9
    ...
    2022 12 31    06 19 56.3 +26 35 03   0.2589  1.2414   174.5     4.4    22.7
    
    M. P. C. Staff               (C) Copyright 2022 MPC           M.P.E.C. 2022-X17
    


    Read MPEC 2022-X16 Read MPEC 2022-X18


    MPEC number:

    Enter an MPEC number in one of the following forms:

    • 1997-B01 (the full form)
    • J97B01 (the packed version of the full form)
    • B01 (the abbreviated form)